| time (UTC) | temp F | wind direction | speed knots | gust knots | rain 1hr in | rain 24hr in | rain mn in | humidity % | barometer mb |
| 20260504081546 | 42 | 319 | 0.0 | 0.0 | 0.00 | 0.00 | 0.00 | 90 | 1017.6 |
| 20260504050014 | 46 | 319 | 0.0 | 0.0 | 0.00 | 0.00 | 0.00 | 84 | 1017.8 |
| 20260504044516 | 46 | 319 | 0.0 | 0.0 | 0.00 | 0.00 | 0.00 | 83 | 1017.8 |
| 20260504043021 | 47 | 319 | 0.0 | 0.0 | 0.00 | 0.00 | 0.00 | 81 | 1017.8 |
| 20260504041526 | 47 | 319 | 0.0 | 0.0 | 0.00 | 0.00 | 0.00 | 81 | 1017.8 |
| 20260504040012 | 48 | 319 | 0.0 | 0.0 | 0.00 | 0.00 | 0.00 | 80 | 1018.0 |
| 20260504034531 | 48 | 319 | 0.0 | 0.0 | 0.00 | 0.00 | 0.00 | 78 | 1017.9 |
| 20260504033027 | 49 | 319 | 0.0 | 0.0 | 0.00 | 0.00 | 0.00 | 77 | 1018.0 |
| 20260504031528 | 49 | 319 | 0.0 | 0.0 | 0.00 | 0.00 | 0.00 | 76 | 1018.1 |
| 20260504030014 | 50 | 319 | 0.0 | 0.0 | 0.00 | 0.00 | 0.00 | 75 | 1017.7 |
| 20260504024519 | 51 | 319 | 0.0 | 0.0 | 0.00 | 0.00 | 0.00 | 74 | 1017.6 |
| 20260504023026 | 51 | 319 | 0.0 | 0.0 | 0.00 | 0.00 | 0.00 | 72 | 1017.6 |
| 20260504021530 | 52 | 319 | 0.0 | 0.0 | 0.00 | 0.00 | 0.00 | 71 | 1017.5 |
| 20260504020012 | 53 | 319 | 0.0 | 0.0 | 0.00 | 0.00 | 0.00 | 68 | 1017.3 |
| 20260504014520 | 54 | 319 | 0.0 | 0.0 | 0.00 | 0.00 | 0.00 | 67 | 1017.1 |
| 20260504013023 | 55 | 319 | 0.0 | 0.0 | 0.00 | 0.00 | 0.00 | 64 | 1016.8 |
| 20260504011526 | 56 | 319 | 0.0 | 0.0 | 0.00 | 0.00 | 0.00 | 63 | 1016.6 |
| 20260504010011 | 58 | 319 | 0.0 | 0.0 | 0.00 | 0.00 | 0.00 | 60 | 1016.5 |
| 20260504004520 | 60 | 319 | 0.0 | 0.0 | 0.00 | 0.00 | 0.00 | 57 | 1016.3 |
| 20260504003021 | 62 | 319 | 0.0 | 0.0 | 0.00 | 0.00 | 0.00 | 53 | 1016.3 |
| 20260504001526 | 65 | 319 | 0.0 | 0.0 | 0.00 | 0.00 | 0.00 | 49 | 1016.2 |
| 20260504000012 | 68 | 319 | 0.0 | 0.0 | 0.00 | 0.00 | 0.00 | 46 | 1016.1 |
| 20260503234522 | 69 | 36 | 0.0 | 0.0 | 0.00 | 0.00 | 0.00 | 44 | 1016.0 |
| 20260503233021 | 70 | 360 | 0.0 | 1.7 | 0.00 | 0.00 | 0.00 | 41 | 1016.0 |
| 20260503231541 | 71 | 310 | 0.0 | 0.9 | 0.00 | 0.00 | 0.00 | 39 | 1016.0 |
| 20260503230014 | 71 | 9 | 0.9 | 4.3 | 0.00 | 0.00 | 0.00 | 38 | 1016.0 |
| 20260503224518 | 71 | 240 | 0.0 | 3.5 | 0.00 | 0.00 | 0.00 | 37 | 1016.0 |
| 20260503223025 | 71 | 12 | 0.0 | 7.0 | 0.00 | 0.00 | 0.00 | 36 | 1016.3 |
| 20260503221528 | 72 | 211 | 0.0 | 2.6 | 0.00 | 0.00 | 0.00 | 36 | 1016.2 |
| 20260503220018 | 72 | 55 | 0.0 | 3.5 | 0.00 | 0.00 | 0.00 | 35 | 1016.3 |
| 20260503214519 | 72 | 346 | 0.9 | 5.2 | 0.00 | 0.00 | 0.00 | 36 | 1016.3 |
| 20260503213029 | 73 | 349 | 0.9 | 7.0 | 0.00 | 0.00 | 0.00 | 37 | 1016.4 |
| 20260503211525 | 71 | 5 | 0.0 | 9.6 | 0.00 | 0.00 | 0.00 | 39 | 1016.4 |
| 20260503210016 | 72 | 346 | 0.9 | 7.0 | 0.00 | 0.00 | 0.00 | 37 | 1016.5 |
| 20260503204512 | 72 | 10 | 1.7 | 4.3 | 0.00 | 0.00 | 0.00 | 38 | 1016.8 |
| 20260503203022 | 71 | 360 | 0.0 | 9.6 | 0.00 | 0.00 | 0.00 | 39 | 1016.9 |
| 20260503201524 | 71 | 9 | 0.9 | 7.0 | 0.00 | 0.00 | 0.00 | 40 | 1017.1 |
| 20260503200007 | 71 | 214 | 0.0 | 4.3 | 0.00 | 0.00 | 0.00 | 39 | 1017.3 |
| 20260503194518 | 70 | 12 | 0.0 | 7.8 | 0.00 | 0.00 | 0.00 | 40 | 1017.7 |
| 20260503193018 | 70 | 259 | 0.9 | 7.8 | 0.00 | 0.00 | 0.00 | 40 | 1017.9 |
| 20260503191521 | 69 | 198 | 0.0 | 7.0 | 0.00 | 0.00 | 0.00 | 42 | 1018.5 |
| 20260503190004 | 70 | 331 | 0.0 | 7.0 | 0.00 | 0.00 | 0.00 | 40 | 1018.9 |
| 20260503184509 | 68 | 165 | 0.0 | 4.3 | 0.00 | 0.00 | 0.00 | 43 | 1018.9 |
| 20260503183014 | 68 | 17 | 0.9 | 6.1 | 0.00 | 0.00 | 0.00 | 41 | 1019.2 |
| 20260503181517 | 68 | 23 | 0.0 | 2.6 | 0.00 | 0.00 | 0.00 | 42 | 1019.3 |
| 20260503180103 | 67 | 211 | 0.0 | 5.2 | 0.00 | 0.00 | 0.00 | 41 | 1019.2 |
| 20260503174508 | 67 | 344 | 1.7 | 7.0 | 0.00 | 0.00 | 0.00 | 42 | 1019.4 |
| 20260503173012 | 66 | 355 | 0.0 | 3.5 | 0.00 | 0.00 | 0.00 | 41 | 1019.5 |
| 20260503171518 | 66 | 240 | 0.9 | 4.3 | 0.00 | 0.00 | 0.00 | 42 | 1019.6 |